Volver al catálogo

STARLINK-33574

ActivoComunicacionesVLEO
NORAD 62774·PAYLOAD·🇺🇸 United States

Lanzado Jan 21, 2025 desde Vandenberg Space Force Base

Loading…

Próximos Pases (próximas 24 horas)

TLE

ActualizadoSource: CelesTrak SupGP

Época: Sep 15, 2026, 02:39 UTC

1 62774C 25015S   26258.11090278 -.00009292  00000+0 -27457-3 0  2589
2 62774  53.1565 158.6558 0001010  92.0753  74.1354 15.34390485    16

Sigue STARLINK-33574 en tiempo real con AllMySat

Download on the App Store